TimeCDT,TemperatureF,Dew PointF,Humidity,Sea Level PressureIn,VisibilityMPH,Wind Direction,Wind SpeedMPH,Gust SpeedMPH,PrecipitationIn,Events,Conditions,WindDirDegrees,DateUTC
12:52 AM,66.0,61.0,84,30.11,10.0,East,4.6,-,N/A,,Clear,80,2013-08-18 05:52:00
1:52 AM,63.0,60.1,90,30.11,8.0,NNW,3.5,-,N/A,,Partly Cloudy,340,2013-08-18 06:52:00
2:52 AM,62.1,59.0,90,30.11,9.0,Calm,Calm,-,N/A,,Clear,0,2013-08-18 07:52:00
3:52 AM,62.1,59.0,90,30.10,8.0,ESE,3.5,-,N/A,,Clear,120,2013-08-18 08:52:00
4:52 AM,63.0,59.0,87,30.11,9.0,Calm,Calm,-,N/A,,Clear,0,2013-08-18 09:52:00
5:52 AM,61.0,57.9,90,30.12,9.0,Calm,Calm,-,N/A,,Clear,0,2013-08-18 10:52:00
6:52 AM,63.0,59.0,87,30.13,8.0,Calm,Calm,-,N/A,,Clear,0,2013-08-18 11:52:00
7:52 AM,64.9,61.0,87,30.13,8.0,Calm,Calm,-,N/A,,Clear,0,2013-08-18 12:52:00
8:52 AM,69.1,63.0,81,30.15,10.0,SE,3.5,-,N/A,,Clear,140,2013-08-18 13:52:00
9:52 AM,73.9,62.1,66,30.15,10.0,East,4.6,-,N/A,,Clear,100,2013-08-18 14:52:00
10:52 AM,75.9,62.1,62,30.15,10.0,NNE,8.1,-,N/A,,Clear,30,2013-08-18 15:52:00
11:52 AM,78.1,59.0,52,30.14,10.0,Variable,4.6,-,N/A,,Clear,0,2013-08-18 16:52:00
12:52 PM,79.0,59.0,50,30.13,10.0,NE,11.5,-,N/A,,Clear,50,2013-08-18 17:52:00
1:52 PM,79.0,61.0,54,30.11,10.0,Variable,6.9,-,N/A,,Partly Cloudy,0,2013-08-18 18:52:00
2:52 PM,81.0,60.1,49,30.10,10.0,ENE,8.1,-,N/A,,Partly Cloudy,70,2013-08-18 19:52:00
3:52 PM,80.1,61.0,52,30.08,10.0,NE,10.4,-,N/A,,Mostly Cloudy,50,2013-08-18 20:52:00
4:52 PM,80.1,60.1,50,30.07,10.0,East,5.8,-,N/A,,Scattered Clouds,100,2013-08-18 21:52:00
5:52 PM,80.1,59.0,48,30.07,10.0,SSE,5.8,-,N/A,,Mostly Cloudy,150,2013-08-18 22:52:00
6:52 PM,80.1,61.0,52,30.06,10.0,Calm,Calm,-,N/A,,Overcast,0,2013-08-18 23:52:00
7:52 PM,77.0,61.0,58,30.07,10.0,Calm,Calm,-,N/A,,Overcast,0,2013-08-19 00:52:00
8:52 PM,73.0,63.0,71,30.07,10.0,East,3.5,-,N/A,,Scattered Clouds,90,2013-08-19 01:52:00
9:52 PM,70.0,63.0,78,30.09,10.0,East,6.9,-,N/A,,Clear,100,2013-08-19 02:52:00
10:52 PM,70.0,63.0,78,30.09,10.0,Calm,Calm,-,N/A,,Clear,0,2013-08-19 03:52:00
11:52 PM,66.9,62.1,84,30.09,10.0,Calm,Calm,-,N/A,,Clear,0,2013-08-19 04:52:00